Weather History for Williston, ND

Change the Weather History Date:

Sunday, November 4, 2012

  Actual Average Record
Temperature  
Mean Temperature 34 °F 34 °F  
Max Temperature 38 °F 45 °F 71 °F (1975)
Min Temperature 30 °F 22 °F -6 °F (1973)
Degree Days  
Heating Degree Days 31 31  
Month to date heating degree days 132 122  
Since 1 July heating degree days 1112 1149  
Cooling Degree Days 0 0  
Month to date cooling degree days 0 0  
Year to date cooling degree days 532 456  
Moisture  
Dew Point 33 °F    
Average Humidity 96    
Maximum Humidity 100    
Minimum Humidity 92    
Precipitation  
Precipitation 0.08 in 0.02 in 0.39 in (1959)
Month to date precipitation 0.38 0.10  
Year to date precipitation 11.52 13.20  
Snow  
Snow 0.00 in 0.20 in 3.90 in (1959)
Month to date snowfall 2.0 0.6  
Snow Depth 0.00 in    
Sea Level Pressure  
Sea Level Pressure 30.15 in    
Wind  
Wind Speed 7 mph (SE)    
Max Wind Speed 16 mph    
Max Gust Speed 21 mph    
Visibility 8 miles    
Events Rain    
T = Trace of Precipitation, MM = Missing Value Source: NWS Daily Summary

Daily Weather History Graph

Daily Weather History Graph

Search for Another Location

Airport:

Trip Planner

Search our weather history database for the weather conditions in past years. The results will help you decide how hot, cold, wet, or windy it might be!

Date:

Astronomy

Nov. 04, 2012 Rise Set
Actual Time 7:45 AM CST 5:30 PM CST
Civil Twilight 7:12 AM CST 6:03 PM CST
Nautical Twilight 6:35 AM CST 6:40 PM CST
Astronomical Twilight 5:59 AM CST 7:16 PM CST
Moon 10:06 PM CST (11/4) 12:35 PM CST (11/4)
Length of Visible Light 10h 50m
Length of Day
9h 44m
Waning Gibbous, 72% of the Moon is Illuminated
Nov 4
Waning Gibbous
Nov 6
Last Quarter
Nov 13
New
Nov 20
First Quarter
Nov 28
Full

Hourly Weather History & Observations

Time (CST) Temp. Windchill Dew Point Humidity Pressure Visibility Wind Dir Wind Speed Gust Speed Precip Events Conditions
12:31 AM 30.2 °F 22.6 °F 28.4 °F 93% 30.12 in 10.0 mi SE 8.1 mph - N/A   Overcast
12:52 AM 30.9 °F 22.2 °F 28.0 °F 89% 30.20 in 10.0 mi SE 10.4 mph - N/A   Overcast
1:52 AM 30.9 °F 21.7 °F 28.0 °F 89% 30.18 in 10.0 mi SSE 11.5 mph - N/A   Overcast
1:17 AM 30.2 °F 20.8 °F 28.4 °F 93% 30.09 in 9.0 mi SSE 11.5 mph 19.6 mph N/A   Overcast
1:52 AM 30.0 °F 21.7 °F 28.0 °F 92% 30.16 in 8.0 mi SE 9.2 mph - N/A   Overcast
2:52 AM 30.0 °F 22.4 °F 28.9 °F 96% 30.15 in 7.0 mi SSE 8.1 mph - N/A   Overcast
3:52 AM 30.9 °F 27.5 °F 30.0 °F 96% 30.15 in 5.0 mi South 3.5 mph - 0.01 in   Overcast
4:18 AM 30.2 °F 24.3 °F 30.2 °F 100% 30.06 in 4.0 mi SSE 5.8 mph - 0.03 in Rain Light Freezing Rain
4:29 AM 30.2 °F 23.4 °F 30.2 °F 100% 30.05 in 3.0 mi SE 6.9 mph - 0.04 in Rain Light Freezing Rain
4:52 AM 30.9 °F 24.3 °F 30.9 °F 100% 30.12 in 3.0 mi SE 6.9 mph - 0.06 in Rain Light Freezing Rain
5:44 AM 30.2 °F 22.6 °F 30.2 °F 100% 30.03 in 5.0 mi SE 8.1 mph - 0.01 in   Overcast
5:52 AM 30.9 °F 24.3 °F 30.9 °F 100% 30.10 in 5.0 mi SE 6.9 mph - 0.01 in   Overcast
6:12 AM 32.0 °F 25.6 °F 30.2 °F 93% 30.02 in 6.0 mi SE 6.9 mph - 0.00 in   Overcast
6:41 AM 32.0 °F 28.7 °F 32.0 °F 100% 30.01 in 7.0 mi SSE 3.5 mph - 0.00 in   Overcast
6:52 AM 32.0 °F 26.4 °F 32.0 °F 100% 30.09 in 7.0 mi South 5.8 mph - 0.00 in   Overcast
7:52 AM 32.0 °F 26.4 °F 32.0 °F 100% 30.08 in 6.0 mi SSE 5.8 mph - N/A   Overcast
8:33 AM 32.0 °F 28.7 °F 32.0 °F 100% 30.01 in 5.0 mi SSW 3.5 mph - N/A   Scattered Clouds
8:49 AM 32.0 °F 27.5 °F 32.0 °F 100% 30.01 in 5.0 mi SSE 4.6 mph - N/A   Mostly Cloudy
8:52 AM 32.0 °F 27.5 °F 32.0 °F 100% 30.09 in 5.0 mi SSE 4.6 mph - N/A   Mostly Cloudy
9:52 AM 34.0 °F 29.8 °F 34.0 °F 100% 30.09 in 6.0 mi SSE 4.6 mph - N/A   Overcast
10:00 AM 33.8 °F 29.6 °F 33.8 °F 100% 30.02 in 6.0 mi South 4.6 mph - N/A   Overcast
10:52 AM 36.0 °F - 35.1 °F 97% 30.09 in 7.0 mi Calm Calm - N/A   Overcast
11:52 AM 37.9 °F - 36.0 °F 93% 30.11 in 8.0 mi Calm Calm - N/A   Overcast
12:52 PM 37.0 °F 31.0 °F 37.0 °F 100% 30.13 in 6.0 mi NNW 8.1 mph - N/A   Overcast
1:42 PM 37.4 °F 28.5 °F 35.6 °F 93% 30.09 in 10.0 mi NNW 15.0 mph - N/A   Overcast
1:52 PM 37.9 °F 30.0 °F 37.0 °F 97% 30.16 in 10.0 mi NNW 12.7 mph - N/A   Overcast
2:52 PM 37.9 °F 32.7 °F 36.0 °F 93% 30.17 in 10.0 mi NNW 6.9 mph - N/A   Overcast
3:52 PM 37.0 °F 31.0 °F 36.0 °F 96% 30.21 in 10.0 mi NNW 8.1 mph - N/A   Overcast
4:52 PM 37.0 °F 29.8 °F 37.0 °F 100% 30.24 in 9.0 mi NW 10.4 mph - N/A   Overcast
5:37 PM 37.4 °F 30.8 °F 37.4 °F 100% 30.19 in 8.0 mi NW 9.2 mph - N/A   Overcast
5:52 PM 37.0 °F 30.4 °F 36.0 °F 96% 30.26 in 10.0 mi NW 9.2 mph - N/A   Overcast
6:19 PM 37.4 °F 31.4 °F 37.4 °F 100% 30.20 in 8.0 mi NNW 8.1 mph - N/A   Overcast
6:50 PM 37.4 °F 28.9 °F 35.6 °F 93% 30.21 in 10.0 mi North 13.8 mph - N/A   Overcast
6:52 PM 37.0 °F 28.5 °F 35.1 °F 93% 30.28 in 10.0 mi North 13.8 mph - N/A   Overcast
7:12 PM 35.6 °F 27.5 °F 35.6 °F 100% 30.23 in 10.0 mi North 11.5 mph - N/A   Overcast
7:52 PM 35.1 °F 26.9 °F 34.0 °F 96% 30.30 in 10.0 mi North 11.5 mph - N/A   Overcast
8:52 PM 35.1 °F 30.1 °F 35.1 °F 100% 30.31 in 10.0 mi North 5.8 mph - N/A   Overcast
9:52 PM 34.0 °F 28.8 °F 34.0 °F 100% 30.31 in 9.0 mi NNW 5.8 mph - N/A   Overcast
10:52 PM 34.0 °F 28.8 °F 33.1 °F 96% 30.30 in 10.0 mi NW 5.8 mph - N/A   Overcast